Regional Weather Roundup
Issued by NWS Cleveland, OH

Home | Current Version | Previous Version | Graphics & Text | Print | Product List | Glossary On
Versions: 1 2 3 4 5 6 7 8 9 10 11 12 13 14 15 16 17 18 19 20 21 22 23 24 25 26 27 28 29 30 31 32 33 34 35 36 37 38 39 40 41 42 43 44 45 46 47 48 49 50
000
ASUS41 KCLE 310310
RWRCLE
OHIO REGIONAL WEATHER ROUNDUP
NATIONAL WEATHER SERVICE CLEVELAND, OH
1000 PM EST FRI JAN 30 2015

NOTE: "FAIR" INDICATES FEW OR NO CLOUDS BELOW 12,000 FEET WITH NO
SIGNIFICANT WEATHER AND/OR OBSTRUCTIONS TO VISIBILITY.

OHZ001>008-015>018-024>027-034-035-043-044-310400-
   NORTHWEST OHIO

CITY           SKY/WX    TMP DP  RH WIND       PRES   REMARKS
DEFIANCE       PTCLDY    18  11  74 CALM      30.43F
FINDLAY        CLEAR     13   7  77 S3        30.41S
TOLEDO EXPRESS CLEAR     12   6  77 CALM      30.41F
TOLEDO EXEC    CLEAR     16   8  71 S3        30.44S
LIMA           CLEAR     17   9  70 SW3       30.41S
$$

OHZ009>014-019>023-028>033-038-089-310400-
   NORTHEAST OHIO

CITY           SKY/WX    TMP DP  RH WIND       PRES   REMARKS
CLE-HOPKINS    PTCLDY    12   4  70 NE3       30.45F
CLE-LAKEFRONT  CLEAR     13   6  74 NE5       30.44S WCI   5
CUY CO. ARPT   PTCLDY     9   5  85 NE5       30.43R WCI   0
LORAIN-ELYRIA  PTCLDY     6   2  83 CALM      30.43S
ASHTABULA      CLOUDY    13   5  70 NW9       30.40R WCI   1
AKRON-CANTON   PTCLDY     8   1  73 CALM      30.39S
WOOSTER        MOCLDY    -2  -4  91 CALM      30.40F
MANSFIELD      PTCLDY     8   5  87 S3        30.38F
YOUNGSTOWN     FLURRIES  11   4  73 NW7       30.37S WCI   0
$$

OHZ042-051>053-060>062-070>072-077>081-310400-
  SOUTHWEST OHIO

CITY           SKY/WX    TMP DP  RH WIND       PRES   REMARKS
CINC-COVINGTON CLEAR     24  14  65 CALM      30.43F
CINC-LUNKEN    CLEAR     22  16  78 CALM      30.48S
HAMILTON       CLEAR     17  14  88 CALM      30.47S
DAYTON         CLEAR     18  12  77 CALM      30.43F
WRIGHT-PAT AFB CLEAR     16  12  86 CALM      30.44S
DAYTON GENERAL CLEAR     21  13  71 CALM      30.43S
WILMINGTON     CLEAR     18  11  74 CALM      30.42F
$$

OHZ036-037-039>041-045>050-054>059-063>069-073>076-082>088-310400-
  CENTRAL AND SOUTHEAST OHIO

CITY           SKY/WX    TMP DP  RH WIND       PRES   REMARKS
COLUMBUS       CLEAR     17   9  70 CALM      30.44R
OSU AIRPORT    CLEAR     13   8  81 SW3       30.43S
BOLTON FIELD   CLEAR     13  10  85 MISG      30.44S
RICKENBACK AFB CLEAR     17  10  77 CALM      30.44S
NEWARK         CLEAR      9   5  84 CALM      30.43S
MARION         CLEAR      8   4  83 CALM      30.42S
LANCASTER      CLEAR     11   7  84 CALM      30.44S
ZANESVILLE     CLEAR     10   5  80 CALM      30.42F
NEW PHILLY     CLEAR      7   3  84 CALM      30.44R
$$



USA.gov is the U.S. government's official web portal to all federal, state and local government web resources and services.